Home > Time Zones > World Clock > Weather > Italy > Monza > Past weeks

Flag for Italy Weather past 2 weeks in Monza, Italy

Now
70 °F

Passing clouds.


Feels Like: 70 °F
Forecast: 71 / 90 °F
Wind: 3 mph from Northeast

Location: Milan / Linate

Current Time: Aug 3, 2015 at 7:56:44 AM

Latest Report: Aug 3, 2015 at 7:20 AM


Visibility: N/A

Pressure: 30.04 "Hg

Humidity: 83%

Dew point: 64 °F

Location of MonzaLocation

Historic Weather in Monza — Graph

°F

Monza temperature yesterday

Maximum temperature yesterday: 84 °F (at 4:50 PM)
Minimum temperature yesterday: 63 °F (at 4:20 AM)
Average temperature yesterday: 73 °F

Past Weeks' High & Low Weather Summary

 TemperatureHumidityPressure
High99 °F (Jul 22, 3:50 PM)100% (Aug 2, 4:20 AM)30.04 "Hg (Aug 2, 4:20 AM)
Low63 °F (Aug 2, 4:20 AM)26% (Jul 23, 6:50 PM)29.62 "Hg (Jul 27, 4:50 PM)
Average80 °F58%29.85 "Hg
* Reported Jul 19 6:20 AM — Aug 3 6:50 AM, Monza, Weather by CustomWeather, © 2015

Note: Actual official high and low records may vary slightly from our data, if they occured in-between our weather recording intervals... More about our weather records

Advertising

Monza weather history for previous 24 hours

 ConditionsComfort  
Time TempWeatherWind HumidityBarometerVisibility
6:50 AM
Mon, Aug 3
68 °FPassing clouds.3 mph88%30.04 "HgN/A
6:20 AM68 °FClear.2 mph83%30.04 "Hg10 mi
5:50 AM70 °FClear.3 mph83%30.04 "Hg10 mi
4:50 AM68 °FClear.2 mph88%30.04 "Hg10 mi
4:20 AM68 °FClear.2 mph88%30.04 "Hg10 mi
3:50 AM70 °FClear.2 mph83%30.04 "Hg10 mi
3:20 AM70 °FClear.2 mph83%30.04 "Hg10 mi
2:50 AM70 °FClear.2 mph83%30.04 "Hg10 mi
2:20 AM72 °FClear.3 mph78%30.04 "Hg10 mi
1:50 AM72 °FClear.3 mph78%30.04 "Hg10 mi
1:20 AM72 °FClear.2 mph78%30.04 "Hg10 mi
12:50 AM70 °FClear.2 mph83%30.04 "Hg10 mi
12:20 AM72 °FClear.No wind78%30.04 "Hg10 mi
11:50 PM
Sun, Aug 2
73 °FPassing clouds.3 mph74%30.04 "HgN/A
11:20 PM75 °FClear.5 mph69%30.04 "Hg10 mi
10:50 PM75 °FClear.3 mph69%30.04 "Hg10 mi
10:20 PM75 °FPassing clouds.3 mph69%30.04 "HgN/A
9:50 PM77 °FClear.2 mph65%30.04 "Hg10 mi
9:20 PM75 °FSunny.2 mph69%30.04 "Hg10 mi
8:50 PM77 °FSunny.5 mph65%30.01 "Hg10 mi
8:20 PM79 °FPassing clouds.6 mph58%30.01 "HgN/A
7:50 PM81 °FSunny.7 mph54%30.01 "Hg10 mi
7:20 PM81 °FSunny.8 mph51%30.01 "Hg10 mi
6:50 PM82 °FPassing clouds.7 mph48%30.01 "HgN/A
6:20 PM82 °FPassing clouds.8 mph48%30.01 "HgN/A
5:50 PM82 °FPassing clouds.6 mph48%30.01 "HgN/A
5:20 PM82 °FPassing clouds.6 mph45%30.01 "HgN/A
4:50 PM84 °FPassing clouds.5 mph45%30.01 "HgN/A
4:20 PM82 °FPassing clouds.6 mph48%30.01 "HgN/A
3:50 PM82 °FPassing clouds.7 mph48%30.01 "HgN/A
3:20 PM82 °FSunny.3 mph48%30.01 "Hg10 mi
2:50 PM81 °FPassing clouds.5 mph48%30.04 "HgN/A
2:20 PM81 °FPassing clouds.2 mph48%30.04 "HgN/A
1:50 PM79 °FPassing clouds.2 mph54%30.04 "HgN/A
1:20 PM79 °FScattered clouds.3 mph54%30.04 "HgN/A
12:50 PM77 °FScattered clouds.5 mph57%30.04 "HgN/A
12:20 PM75 °FScattered clouds.3 mph61%30.04 "HgN/A
11:50 AM75 °FScattered clouds.3 mph65%30.04 "HgN/A
11:20 AM73 °FScattered clouds.3 mph65%30.04 "HgN/A
10:50 AM73 °FScattered clouds.3 mph69%30.04 "HgN/A
10:20 AM72 °FPassing clouds.3 mph73%30.04 "HgN/A
9:50 AM72 °FPassing clouds.3 mph78%30.04 "HgN/A
9:20 AM70 °FPassing clouds.5 mph78%30.04 "HgN/A
8:50 AM70 °FPassing clouds.3 mph78%30.04 "HgN/A
8:20 AM68 °FSunny.2 mph83%30.01 "Hg10 mi
7:50 AM66 °FSunny.2 mph83%30.01 "Hg10 mi
7:20 AM64 °FSunny.2 mph94%30.01 "Hg10 mi
Weather by CustomWeather, © 2015

See weather overviewHow to use our weather pages